Time,TemperatureF,DewpointF,PressureIn,WindDirection,WindDirectionDegrees,WindSpeedMPH,WindSpeedGustMPH,Humidity,HourlyPrecipIn,Conditions,Clouds,dailyrainin,SoftwareType,DateUTC
2013-01-24 00:06:00,10.4,5.0,30.57,North,0,0.0,-999.9,79,-99.99,,,-99.99,,2013-01-24 05:06:00,
2013-01-24 00:20:00,10.4,5.0,30.57,North,0,0.0,-999.9,79,-99.99,,,-99.99,,2013-01-24 05:20:00,
2013-01-24 00:28:00,10.4,5.0,30.57,North,0,0.0,-999.9,79,-99.99,,,-99.99,,2013-01-24 05:28:00,
2013-01-24 00:30:00,10.4,5.0,30.57,North,0,0.0,-999.9,79,-99.99,,,-99.99,,2013-01-24 05:30:00,
2013-01-24 00:34:00,10.4,5.0,30.56,North,0,0.0,-999.9,79,-99.99,,,-99.99,,2013-01-24 05:34:00,
2013-01-24 00:40:00,10.4,5.0,30.56,North,0,0.0,-999.9,79,-99.99,,,-99.99,,2013-01-24 05:40:00,
2013-01-24 00:48:00,10.4,5.0,30.56,North,0,0.0,-999.9,79,-99.99,,,-99.99,,2013-01-24 05:48:00,
2013-01-24 00:54:00,10.4,5.0,30.55,North,0,0.0,-999.9,79,-99.99,,,-99.99,,2013-01-24 05:54:00,
2013-01-24 01:00:00,10.4,5.0,30.55,North,0,0.0,-999.9,79,-99.99,,,-99.99,,2013-01-24 06:00:00,
2013-01-24 01:08:00,10.4,5.0,30.55,North,0,0.0,-999.9,79,-99.99,,,-99.99,,2013-01-24 06:08:00,
2013-01-24 01:14:00,8.6,3.2,30.55,NE,47,0.0,-999.9,79,-99.99,,,-99.99,,2013-01-24 06:14:00,
2013-01-24 02:14:00,8.6,5.0,30.53,NNW,344,0.0,-999.9,85,-99.99,,,-99.99,,2013-01-24 07:14:00,
2013-01-24 02:22:00,8.6,3.2,30.53,NNW,330,1.2,-999.9,79,-99.99,,,-99.99,,2013-01-24 07:22:00,
2013-01-24 02:28:00,8.6,3.2,30.53,NNW,330,1.2,-999.9,79,-99.99,,,-99.99,,2013-01-24 07:28:00,
2013-01-24 02:35:00,8.6,5.0,30.53,NNW,333,0.0,-999.9,85,-99.99,,,-99.99,,2013-01-24 07:35:00,
2013-01-24 02:42:00,8.6,5.0,30.53,North,0,0.0,-999.9,85,-99.99,,,-99.99,,2013-01-24 07:42:00,
2013-01-24 02:49:00,8.6,5.0,30.53,North,0,0.0,-999.9,85,-99.99,,,-99.99,,2013-01-24 07:49:00,
2013-01-24 02:54:00,8.6,5.0,30.53,North,0,0.0,-999.9,85,-99.99,,,-99.99,,2013-01-24 07:54:00,
2013-01-24 03:02:00,8.6,5.0,30.53,North,351,0.0,-999.9,85,-99.99,,,-99.99,,2013-01-24 08:02:00,
2013-01-24 03:09:00,8.6,5.0,30.53,North,351,0.0,-999.9,85,-99.99,,,-99.99,,2013-01-24 08:09:00,
2013-01-24 03:14:00,10.4,6.8,30.53,North,0,0.0,-999.9,85,-99.99,,,-99.99,,2013-01-24 08:14:00,
2013-01-24 03:22:00,8.6,5.0,30.53,North,0,0.0,-999.9,85,-99.99,,,-99.99,,2013-01-24 08:22:00,
2013-01-24 03:29:00,8.6,5.0,30.53,North,0,0.0,-999.9,85,-99.99,,,-99.99,,2013-01-24 08:29:00,
2013-01-24 03:34:00,8.6,5.0,30.53,North,0,0.0,-999.9,85,-99.99,,,-99.99,,2013-01-24 08:34:00,
2013-01-24 03:43:00,8.6,5.0,30.53,North,0,0.0,-999.9,85,-99.99,,,-99.99,,2013-01-24 08:43:00,
2013-01-24 03:49:00,8.6,5.0,30.53,North,0,0.0,-999.9,85,-99.99,,,-99.99,,2013-01-24 08:49:00,
2013-01-24 03:55:00,8.6,5.0,30.52,North,0,0.0,-999.9,85,-99.99,,,-99.99,,2013-01-24 08:55:00,
2013-01-24 04:03:00,8.6,5.0,30.52,North,0,0.0,-999.9,85,-99.99,,,-99.99,,2013-01-24 09:03:00,
2013-01-24 04:09:00,8.6,5.0,30.52,North,0,0.0,-999.9,85,-99.99,,,-99.99,,2013-01-24 09:09:00,
2013-01-24 04:14:00,8.6,5.0,30.52,North,0,0.0,-999.9,85,-99.99,,,-99.99,,2013-01-24 09:14:00,
2013-01-24 04:22:00,8.6,5.0,30.53,North,0,0.0,-999.9,85,-99.99,,,-99.99,,2013-01-24 09:22:00,
2013-01-24 04:29:00,8.6,5.0,30.53,North,0,0.0,-999.9,85,-99.99,,,-99.99,,2013-01-24 09:29:00,
2013-01-24 04:34:00,8.6,5.0,30.53,North,0,0.0,-999.9,85,-99.99,,,-99.99,,2013-01-24 09:34:00,
2013-01-24 04:43:00,8.6,5.0,30.53,North,0,0.0,-999.9,85,-99.99,,,-99.99,,2013-01-24 09:43:00,
2013-01-24 04:48:00,8.6,5.0,30.53,North,0,0.0,-999.9,85,-99.99,,,-99.99,,2013-01-24 09:48:00,
2013-01-24 04:54:00,8.6,5.0,30.53,NNE,30,1.2,-999.9,85,-99.99,,,-99.99,,2013-01-24 09:54:00,
2013-01-24 05:02:00,8.6,5.0,30.53,NE,41,1.2,-999.9,85,-99.99,,,-99.99,,2013-01-24 10:02:00,
2013-01-24 05:08:00,8.6,5.0,30.53,NE,41,1.2,-999.9,85,-99.99,,,-99.99,,2013-01-24 10:08:00,
2013-01-24 05:16:00,8.6,5.0,30.53,NNW,345,0.0,-999.9,85,-99.99,,,-99.99,,2013-01-24 10:16:00,
2013-01-24 05:25:00,8.6,5.0,30.53,North,356,1.2,-999.9,85,-99.99,,,-99.99,,2013-01-24 10:25:00,
2013-01-24 05:30:00,10.4,6.8,30.53,North,0,0.0,-999.9,85,-99.99,,,-99.99,,2013-01-24 10:30:00,
2013-01-24 05:36:00,10.4,6.8,30.53,North,0,0.0,-999.9,85,-99.99,,,-99.99,,2013-01-24 10:36:00,
2013-01-24 05:44:00,8.6,5.0,30.54,North,0,0.0,-999.9,85,-99.99,,,-99.99,,2013-01-24 10:44:00,
2013-01-24 05:50:00,8.6,5.0,30.54,North,0,0.0,-999.9,85,-99.99,,,-99.99,,2013-01-24 10:50:00,
2013-01-24 05:56:00,8.6,5.0,30.54,North,0,0.0,-999.9,85,-99.99,,,-99.99,,2013-01-24 10:56:00,
2013-01-24 06:05:00,10.4,6.8,30.55,NW,324,3.5,-999.9,85,-99.99,,,-99.99,,2013-01-24 11:05:00,
2013-01-24 06:10:00,10.4,5.0,30.55,North,0,0.0,-999.9,79,-99.99,,,-99.99,,2013-01-24 11:10:00,
2013-01-24 06:17:00,10.4,5.0,30.55,North,0,0.0,-999.9,79,-99.99,,,-99.99,,2013-01-24 11:17:00,
2013-01-24 06:25:00,10.4,3.2,30.55,North,356,3.5,-999.9,73,-99.99,,,-99.99,,2013-01-24 11:25:00,
2013-01-24 06:34:00,12.2,5.0,30.56,NNW,333,2.3,-999.9,73,-99.99,,,-99.99,,2013-01-24 11:34:00,
2013-01-24 06:40:00,12.2,5.0,30.56,NNW,332,2.3,-999.9,73,-99.99,,,-99.99,,2013-01-24 11:40:00,
2013-01-24 06:46:00,12.2,5.0,30.56,NNW,332,2.3,-999.9,73,-99.99,,,-99.99,,2013-01-24 11:46:00,
2013-01-24 06:54:00,12.2,5.0,30.57,North,359,2.3,-999.9,73,-99.99,,,-99.99,,2013-01-24 11:54:00,
2013-01-24 07:00:00,12.2,6.8,30.57,North,352,2.3,-999.9,79,-99.99,,,-99.99,,2013-01-24 12:00:00,
2013-01-24 07:06:00,12.2,6.8,30.57,North,352,2.3,-999.9,79,-99.99,,,-99.99,,2013-01-24 12:06:00,
2013-01-24 07:14:00,10.4,3.2,30.57,NNW,340,2.3,-999.9,73,-99.99,,,-99.99,,2013-01-24 12:14:00,
2013-01-24 07:20:00,10.4,3.2,30.57,NNW,333,3.5,-999.9,73,-99.99,,,-99.99,,2013-01-24 12:20:00,
2013-01-24 07:26:00,10.4,3.2,30.57,NNW,333,3.5,-999.9,73,-99.99,,,-99.99,,2013-01-24 12:26:00,
2013-01-24 07:34:00,10.4,5.0,30.58,NW,315,1.2,-999.9,79,-99.99,,,-99.99,,2013-01-24 12:34:00,
2013-01-24 07:40:00,10.4,3.2,30.58,North,353,1.2,-999.9,73,-99.99,,,-99.99,,2013-01-24 12:40:00,
2013-01-24 07:46:00,10.4,3.2,30.58,North,353,1.2,-999.9,73,-99.99,,,-99.99,,2013-01-24 12:46:00,
2013-01-24 07:54:00,10.4,3.2,30.58,North,8,0.0,-999.9,73,-99.99,,,-99.99,,2013-01-24 12:54:00,
2013-01-24 08:00:00,10.4,3.2,30.58,North,7,2.3,-999.9,73,-99.99,,,-99.99,,2013-01-24 13:00:00,
2013-01-24 08:06:00,10.4,3.2,30.58,North,7,2.3,-999.9,73,-99.99,,,-99.99,,2013-01-24 13:06:00,
2013-01-24 08:14:00,10.4,3.2,30.59,NNE,17,3.5,-999.9,73,-99.99,,,-99.99,,2013-01-24 13:14:00,
2013-01-24 08:20:00,12.2,5.0,30.59,NE,50,1.2,-999.9,73,-99.99,,,-99.99,,2013-01-24 13:20:00,
2013-01-24 08:26:00,12.2,5.0,30.59,NE,50,1.2,-999.9,73,-99.99,,,-99.99,,2013-01-24 13:26:00,
2013-01-24 08:34:00,12.2,5.0,30.59,North,10,5.8,-999.9,73,-99.99,,,-99.99,,2013-01-24 13:34:00,
2013-01-24 08:40:00,12.2,3.2,30.59,NE,37,5.8,-999.9,67,-99.99,,,-99.99,,2013-01-24 13:40:00,
2013-01-24 08:46:00,12.2,3.2,30.59,NE,37,5.8,-999.9,67,-99.99,,,-99.99,,2013-01-24 13:46:00,
2013-01-24 08:54:00,14.0,3.2,30.59,NNW,330,4.6,-999.9,62,-99.99,,,-99.99,,2013-01-24 13:54:00,
2013-01-24 09:00:00,14.0,3.2,30.58,NNE,15,5.8,-999.9,62,-99.99,,,-99.99,,2013-01-24 14:00:00,
2013-01-24 09:06:00,14.0,3.2,30.58,NNE,15,5.8,-999.9,62,-99.99,,,-99.99,,2013-01-24 14:06:00,
2013-01-24 09:14:00,14.0,1.4,30.59,North,7,4.6,-999.9,57,-99.99,,,-99.99,,2013-01-24 14:14:00,
2013-01-24 09:20:00,14.0,1.4,30.59,NNE,12,4.6,-999.9,57,-99.99,,,-99.99,,2013-01-24 14:20:00,
2013-01-24 09:31:00,15.8,3.2,30.59,NNE,18,11.5,-999.9,58,-99.99,,,-99.99,,2013-01-24 14:31:00,
2013-01-24 09:36:00,15.8,3.2,30.59,NNE,18,11.5,-999.9,58,-99.99,,,-99.99,,2013-01-24 14:36:00,
2013-01-24 09:45:00,15.8,1.4,30.60,NE,44,6.9,-999.9,53,-99.99,,,-99.99,,2013-01-24 14:45:00,
2013-01-24 09:50:00,15.8,1.4,30.60,NNE,23,9.2,-999.9,53,-99.99,,,-99.99,,2013-01-24 14:50:00,
2013-01-24 09:56:00,15.8,1.4,30.60,NNE,23,9.2,-999.9,53,-99.99,,,-99.99,,2013-01-24 14:56:00,
2013-01-24 10:05:00,17.6,1.4,30.60,NNE,15,6.9,-999.9,49,-99.99,,,-99.99,,2013-01-24 15:05:00,
2013-01-24 10:10:00,17.6,-0.4,30.60,NNE,27,6.9,-999.9,45,-99.99,,,-99.99,,2013-01-24 15:10:00,
2013-01-24 10:16:00,17.6,-0.4,30.60,NNE,27,6.9,-999.9,45,-99.99,,,-99.99,,2013-01-24 15:16:00,
2013-01-24 10:24:00,17.6,-0.4,30.60,NNE,17,12.7,-999.9,45,-99.99,,,-99.99,,2013-01-24 15:24:00,
2013-01-24 10:31:00,17.6,-0.4,30.61,North,357,11.5,-999.9,45,-99.99,,,-99.99,,2013-01-24 15:31:00,
2013-01-24 10:36:00,17.6,-0.4,30.61,North,357,11.5,-999.9,45,-99.99,,,-99.99,,2013-01-24 15:36:00,
2013-01-24 10:44:00,17.6,-2.2,30.61,NNW,347,9.2,-999.9,42,-99.99,,,-99.99,,2013-01-24 15:44:00,
2013-01-24 10:50:00,17.6,-2.2,30.61,NNW,347,9.2,-999.9,42,-99.99,,,-99.99,,2013-01-24 15:50:00,
2013-01-24 10:56:00,19.4,-0.4,30.61,NE,50,5.8,-999.9,42,-99.99,,,-99.99,,2013-01-24 15:56:00,
2013-01-24 11:04:00,19.4,-2.2,30.60,NNE,20,13.8,-999.9,39,-99.99,,,-99.99,,2013-01-24 16:04:00,
2013-01-24 11:10:00,19.4,-2.2,30.60,NNE,20,13.8,-999.9,39,-99.99,,,-99.99,,2013-01-24 16:10:00,
2013-01-24 11:16:00,19.4,-4.0,30.61,North,353,4.6,-999.9,36,-99.99,,,-99.99,,2013-01-24 16:16:00,
2013-01-24 11:24:00,19.4,-4.0,30.60,NNE,33,10.4,-999.9,36,-99.99,,,-99.99,,2013-01-24 16:24:00,
2013-01-24 11:30:00,19.4,-5.8,30.60,North,10,11.5,-999.9,33,-99.99,,,-99.99,,2013-01-24 16:30:00,
2013-01-24 11:36:00,19.4,-5.8,30.60,North,10,11.5,-999.9,33,-99.99,,,-99.99,,2013-01-24 16:36:00,
2013-01-24 11:44:00,19.4,-5.8,30.60,NNE,17,9.2,-999.9,33,-99.99,,,-99.99,,2013-01-24 16:44:00,
2013-01-24 11:50:00,21.2,-4.0,30.60,NNE,26,10.4,-999.9,33,-99.99,,,-99.99,,2013-01-24 16:50:00,
2013-01-24 11:56:00,21.2,-4.0,30.60,NNE,26,10.4,-999.9,33,-99.99,,,-99.99,,2013-01-24 16:56:00,
2013-01-24 12:04:00,21.2,-4.0,30.60,NNE,31,8.1,-999.9,33,-99.99,,,-99.99,,2013-01-24 17:04:00,
2013-01-24 12:10:00,21.2,-4.0,30.60,NNE,30,9.2,-999.9,33,-99.99,,,-99.99,,2013-01-24 17:10:00,
2013-01-24 12:16:00,21.2,-4.0,30.60,NNE,30,9.2,-999.9,33,-99.99,,,-99.99,,2013-01-24 17:16:00,
2013-01-24 12:24:00,21.2,-4.0,30.60,NNE,21,12.7,-999.9,33,-99.99,,,-99.99,,2013-01-24 17:24:00,
2013-01-24 12:30:00,21.2,-4.0,30.60,NNE,22,17.3,-999.9,33,-99.99,,,-99.99,,2013-01-24 17:30:00,
2013-01-24 12:36:00,21.2,-4.0,30.60,NNE,22,17.3,-999.9,33,-99.99,,,-99.99,,2013-01-24 17:36:00,
2013-01-24 12:44:00,21.2,-4.0,30.60,NNE,19,10.4,-999.9,33,-99.99,,,-99.99,,2013-01-24 17:44:00,
2013-01-24 12:50:00,21.2,-4.0,30.60,NNE,21,9.2,-999.9,33,-99.99,,,-99.99,,2013-01-24 17:50:00,
2013-01-24 12:56:00,21.2,-4.0,30.60,NNE,21,9.2,-999.9,33,-99.99,,,-99.99,,2013-01-24 17:56:00,
2013-01-24 13:06:00,21.2,-4.0,30.60,NE,43,10.4,-999.9,33,-99.99,,,-99.99,,2013-01-24 18:06:00,
2013-01-24 13:14:00,21.2,-4.0,30.60,East,101,2.3,-999.9,33,-99.99,,,-99.99,,2013-01-24 18:14:00,
2013-01-24 13:20:00,23.0,-2.2,30.60,NNE,14,8.1,-999.9,33,-99.99,,,-99.99,,2013-01-24 18:20:00,
2013-01-24 13:26:00,23.0,-2.2,30.60,NNE,14,8.1,-999.9,33,-99.99,,,-99.99,,2013-01-24 18:26:00,
2013-01-24 13:34:00,21.2,-4.0,30.61,NNE,33,12.7,-999.9,33,-99.99,,,-99.99,,2013-01-24 18:34:00,
2013-01-24 13:40:00,23.0,-4.0,30.61,NE,41,8.1,-999.9,31,-99.99,,,-99.99,,2013-01-24 18:40:00,
2013-01-24 13:46:00,23.0,-4.0,30.61,NE,41,8.1,-999.9,31,-99.99,,,-99.99,,2013-01-24 18:46:00,
2013-01-24 13:54:00,23.0,-4.0,30.61,NNE,16,3.5,-999.9,31,-99.99,,,-99.99,,2013-01-24 18:54:00,
2013-01-24 14:00:00,23.0,-4.0,30.61,NNE,26,9.2,-999.9,31,-99.99,,,-99.99,,2013-01-24 19:00:00,
2013-01-24 14:06:00,23.0,-4.0,30.61,NNE,26,9.2,-999.9,31,-99.99,,,-99.99,,2013-01-24 19:06:00,
2013-01-24 14:14:00,23.0,-4.0,30.61,North,11,8.1,-999.9,31,-99.99,,,-99.99,,2013-01-24 19:14:00,
2013-01-24 14:20:00,23.0,-4.0,30.61,NE,40,0.0,-999.9,31,-99.99,,,-99.99,,2013-01-24 19:20:00,
2013-01-24 14:26:00,23.0,-4.0,30.61,NE,40,0.0,-999.9,31,-99.99,,,-99.99,,2013-01-24 19:26:00,
2013-01-24 14:33:00,23.0,-4.0,30.61,North,8,9.2,-999.9,31,-99.99,,,-99.99,,2013-01-24 19:33:00,
2013-01-24 14:40:00,23.0,-4.0,30.62,NNE,20,9.2,-999.9,31,-99.99,,,-99.99,,2013-01-24 19:40:00,
2013-01-24 14:46:00,23.0,-4.0,30.62,NNE,20,9.2,-999.9,31,-99.99,,,-99.99,,2013-01-24 19:46:00,
2013-01-24 14:54:00,23.0,-4.0,30.63,North,10,12.7,-999.9,31,-99.99,,,-99.99,,2013-01-24 19:54:00,
2013-01-24 15:00:00,21.2,-4.0,30.63,NNE,30,10.4,-999.9,33,-99.99,,,-99.99,,2013-01-24 20:00:00,
2013-01-24 15:06:00,21.2,-4.0,30.63,NNE,30,10.4,-999.9,33,-99.99,,,-99.99,,2013-01-24 20:06:00,
2013-01-24 15:14:00,23.0,-4.0,30.64,NE,38,9.2,-999.9,31,-99.99,,,-99.99,,2013-01-24 20:14:00,
2013-01-24 15:20:00,21.2,-4.0,30.65,NNE,24,11.5,-999.9,33,-99.99,,,-99.99,,2013-01-24 20:20:00,
2013-01-24 15:26:00,21.2,-4.0,30.65,NNE,24,11.5,-999.9,33,-99.99,,,-99.99,,2013-01-24 20:26:00,
2013-01-24 15:34:00,21.2,-4.0,30.65,North,7,5.8,-999.9,33,-99.99,,,-99.99,,2013-01-24 20:34:00,
2013-01-24 15:40:00,21.2,-4.0,30.66,NNE,13,4.6,-999.9,33,-99.99,,,-99.99,,2013-01-24 20:40:00,
2013-01-24 15:46:00,21.2,-4.0,30.66,NNE,13,4.6,-999.9,33,-99.99,,,-99.99,,2013-01-24 20:46:00,
2013-01-24 15:56:00,21.2,-4.0,30.66,South,189,2.3,-999.9,33,-99.99,,,-99.99,,2013-01-24 20:56:00,
2013-01-24 16:04:00,21.2,-4.0,30.66,NNE,33,12.7,-999.9,33,-99.99,,,-99.99,,2013-01-24 21:04:00,
2013-01-24 16:10:00,21.2,-2.2,30.66,NNE,25,9.2,-999.9,36,-99.99,,,-99.99,,2013-01-24 21:10:00,
2013-01-24 16:16:00,21.2,-2.2,30.66,NNE,25,9.2,-999.9,36,-99.99,,,-99.99,,2013-01-24 21:16:00,
2013-01-24 16:24:00,21.2,-4.0,30.67,NNE,31,9.2,-999.9,33,-99.99,,,-99.99,,2013-01-24 21:24:00,
2013-01-24 16:33:00,21.2,-2.2,30.67,NE,37,9.2,-999.9,36,-99.99,,,-99.99,,2013-01-24 21:33:00,
2013-01-24 16:40:00,21.2,-2.2,30.68,NE,34,6.9,-999.9,36,-99.99,,,-99.99,,2013-01-24 21:40:00,
2013-01-24 16:46:00,21.2,-2.2,30.68,NE,34,6.9,-999.9,36,-99.99,,,-99.99,,2013-01-24 21:46:00,
2013-01-24 16:54:00,21.2,-2.2,30.68,WNW,288,4.6,-999.9,36,-99.99,,,-99.99,,2013-01-24 21:54:00,
2013-01-24 17:01:00,21.2,-2.2,30.69,ENE,62,3.5,-999.9,36,-99.99,,,-99.99,,2013-01-24 22:01:00,
2013-01-24 17:06:00,21.2,-2.2,30.69,ENE,62,3.5,-999.9,36,-99.99,,,-99.99,,2013-01-24 22:06:00,
2013-01-24 17:14:00,21.2,-2.2,30.69,North,9,9.2,-999.9,36,-99.99,,,-99.99,,2013-01-24 22:14:00,
2013-01-24 17:20:00,21.2,-2.2,30.70,North,0,2.3,-999.9,36,-99.99,,,-99.99,,2013-01-24 22:20:00,
2013-01-24 17:26:00,21.2,-2.2,30.70,North,0,2.3,-999.9,36,-99.99,,,-99.99,,2013-01-24 22:26:00,
2013-01-24 17:34:00,19.4,-4.0,30.70,North,2,5.8,-999.9,36,-99.99,,,-99.99,,2013-01-24 22:34:00,
2013-01-24 17:43:00,19.4,-2.2,30.71,East,94,2.3,-999.9,39,-99.99,,,-99.99,,2013-01-24 22:43:00,
2013-01-24 17:53:00,19.4,-4.0,30.72,North,0,6.9,-999.9,36,-99.99,,,-99.99,,2013-01-24 22:53:00,
2013-01-24 17:59:00,19.4,-4.0,30.72,North,0,6.9,-999.9,36,-99.99,,,-99.99,,2013-01-24 22:59:00,
2013-01-24 18:05:00,19.4,-2.2,30.72,NNE,24,9.2,-999.9,39,-99.99,,,-99.99,,2013-01-24 23:05:00,
2013-01-24 18:13:00,19.4,-2.2,30.73,East,89,3.5,-999.9,39,-99.99,,,-99.99,,2013-01-24 23:13:00,
2013-01-24 18:20:00,19.4,-2.2,30.73,East,89,3.5,-999.9,39,-99.99,,,-99.99,,2013-01-24 23:20:00,
2013-01-24 18:25:00,19.4,-2.2,30.73,SSW,199,3.5,-999.9,39,-99.99,,,-99.99,,2013-01-24 23:25:00,
2013-01-24 19:22:00,17.6,-2.2,30.75,NNE,20,6.9,-999.9,42,-99.99,,,-99.99,,2013-01-25 00:22:00,
2013-01-24 19:28:00,17.6,-2.2,30.75,NNE,20,6.9,-999.9,42,-99.99,,,-99.99,,2013-01-25 00:28:00,
2013-01-24 19:34:00,17.6,-2.2,30.76,NE,55,5.8,-999.9,42,-99.99,,,-99.99,,2013-01-25 00:34:00,
2013-01-24 19:41:00,17.6,-0.4,30.76,East,81,5.8,-999.9,45,-99.99,,,-99.99,,2013-01-25 00:41:00,
2013-01-24 19:47:00,17.6,-0.4,30.76,East,81,5.8,-999.9,45,-99.99,,,-99.99,,2013-01-25 00:47:00,
2013-01-24 19:53:00,17.6,-0.4,30.76,ENE,58,5.8,-999.9,45,-99.99,,,-99.99,,2013-01-25 00:53:00,
2013-01-24 19:59:00,17.6,-0.4,30.76,ENE,58,5.8,-999.9,45,-99.99,,,-99.99,,2013-01-25 00:59:00,
2013-01-24 20:05:00,17.6,-0.4,30.76,ENE,71,5.8,-999.9,45,-99.99,,,-99.99,,2013-01-25 01:05:00,
2013-01-24 20:12:00,15.8,-2.2,30.76,NE,39,5.8,-999.9,45,-99.99,,,-99.99,,2013-01-25 01:12:00,
2013-01-24 20:18:00,15.8,-2.2,30.76,NE,39,5.8,-999.9,45,-99.99,,,-99.99,,2013-01-25 01:18:00,
2013-01-24 20:26:00,15.8,-2.2,30.76,NE,36,5.8,-999.9,45,-99.99,,,-99.99,,2013-01-25 01:26:00,
2013-01-24 20:32:00,15.8,-0.4,30.76,NNW,345,3.5,-999.9,49,-99.99,,,-99.99,,2013-01-25 01:32:00,
2013-01-24 20:38:00,15.8,-0.4,30.76,NNW,345,3.5,-999.9,49,-99.99,,,-99.99,,2013-01-25 01:38:00,
2013-01-24 20:46:00,15.8,-0.4,30.76,NE,44,9.2,-999.9,49,-99.99,,,-99.99,,2013-01-25 01:46:00,
2013-01-24 20:52:00,15.8,-0.4,30.76,NNE,21,3.5,-999.9,49,-99.99,,,-99.99,,2013-01-25 01:52:00,
2013-01-24 20:58:00,15.8,-0.4,30.76,NNE,21,3.5,-999.9,49,-99.99,,,-99.99,,2013-01-25 01:58:00,
2013-01-24 21:06:00,15.8,-0.4,30.76,ENE,59,6.9,-999.9,49,-99.99,,,-99.99,,2013-01-25 02:06:00,
2013-01-24 21:12:00,15.8,-0.4,30.76,NE,40,4.6,-999.9,49,-99.99,,,-99.99,,2013-01-25 02:12:00,
2013-01-24 21:18:00,15.8,-0.4,30.76,NE,40,4.6,-999.9,49,-99.99,,,-99.99,,2013-01-25 02:18:00,
2013-01-24 21:26:00,15.8,-0.4,30.77,NE,48,4.6,-999.9,49,-99.99,,,-99.99,,2013-01-25 02:26:00,
2013-01-24 21:32:00,15.8,-0.4,30.77,NNE,17,1.2,-999.9,49,-99.99,,,-99.99,,2013-01-25 02:32:00,
2013-01-24 21:38:00,15.8,-0.4,30.77,NNE,17,1.2,-999.9,49,-99.99,,,-99.99,,2013-01-25 02:38:00,
2013-01-24 21:46:00,15.8,-0.4,30.77,North,4,6.9,-999.9,49,-99.99,,,-99.99,,2013-01-25 02:46:00,
2013-01-24 21:52:00,15.8,-0.4,30.77,NE,45,3.5,-999.9,49,-99.99,,,-99.99,,2013-01-25 02:52:00,
2013-01-24 21:58:00,15.8,-0.4,30.77,NE,45,3.5,-999.9,49,-99.99,,,-99.99,,2013-01-25 02:58:00,
2013-01-24 22:06:00,15.8,-0.4,30.77,North,359,9.2,-999.9,49,-99.99,,,-99.99,,2013-01-25 03:06:00,
2013-01-24 22:12:00,15.8,-0.4,30.77,NE,52,2.3,-999.9,49,-99.99,,,-99.99,,2013-01-25 03:12:00,
2013-01-24 22:20:00,15.8,-0.4,30.78,NNE,29,2.3,-999.9,49,-99.99,,,-99.99,,2013-01-25 03:20:00,
2013-01-24 22:28:00,15.8,-0.4,30.78,NNE,29,2.3,-999.9,49,-99.99,,,-99.99,,2013-01-25 03:28:00,
2013-01-24 22:34:00,15.8,-0.4,30.78,NE,37,4.6,-999.9,49,-99.99,,,-99.99,,2013-01-25 03:34:00,
2013-01-24 22:40:00,15.8,-0.4,30.78,NNE,13,4.6,-999.9,49,-99.99,,,-99.99,,2013-01-25 03:40:00,
2013-01-24 22:48:00,15.8,-0.4,30.78,NNE,13,4.6,-999.9,49,-99.99,,,-99.99,,2013-01-25 03:48:00,
2013-01-24 22:54:00,14.0,-2.2,30.78,NNE,27,5.8,-999.9,49,-99.99,,,-99.99,,2013-01-25 03:54:00,
2013-01-24 23:00:00,14.0,-2.2,30.79,North,359,2.3,-999.9,49,-99.99,,,-99.99,,2013-01-25 04:00:00,
2013-01-24 23:08:00,14.0,-2.2,30.79,North,359,2.3,-999.9,49,-99.99,,,-99.99,,2013-01-25 04:08:00,
2013-01-24 23:14:00,14.0,-2.2,30.79,ESE,111,1.2,-999.9,49,-99.99,,,-99.99,,2013-01-25 04:14:00,
2013-01-24 23:20:00,14.0,-2.2,30.79,NNE,32,3.5,-999.9,49,-99.99,,,-99.99,,2013-01-25 04:20:00,
2013-01-24 23:28:00,14.0,-2.2,30.79,NNE,32,3.5,-999.9,49,-99.99,,,-99.99,,2013-01-25 04:28:00,
2013-01-24 23:34:00,14.0,-2.2,30.79,NNE,25,9.2,-999.9,49,-99.99,,,-99.99,,2013-01-25 04:34:00,
2013-01-24 23:40:00,14.0,-2.2,30.79,NE,43,4.6,-999.9,49,-99.99,,,-99.99,,2013-01-25 04:40:00,
2013-01-24 23:48:00,14.0,-2.2,30.79,NE,43,4.6,-999.9,49,-99.99,,,-99.99,,2013-01-25 04:48:00,
2013-01-24 23:54:00,14.0,-2.2,30.79,NNE,26,1.2,-999.9,49,-99.99,,,-99.99,,2013-01-25 04:54:00,